Time,TemperatureF,DewpointF,PressureIn,WindDirection,WindDirectionDegrees,WindSpeedMPH,WindSpeedGustMPH,Humidity,HourlyPrecipIn,Conditions,Clouds,dailyrainin,SoftwareType,DateUTC
2013-01-08 00:00:00,28.7,23.9,30.03,NE,45,5.0,11.0,82,0.00,,,0.00,WUHU216DAVISVP2,2013-01-08 05:00:00,
2013-01-08 00:02:00,28.7,23.9,30.03,ENE,72,3.0,11.0,82,0.00,,,0.00,WUHU216DAVISVP2,2013-01-08 05:02:00,
2013-01-08 00:03:00,28.6,23.8,30.03,NNE,30,4.0,11.0,82,0.00,,,0.00,WUHU216DAVISVP2,2013-01-08 05:03:00,
2013-01-08 00:08:00,28.7,24.2,30.03,NE,39,4.0,12.0,83,0.00,,,0.00,WUHU216DAVISVP2,2013-01-08 05:08:00,
2013-01-08 00:13:00,28.6,24.1,30.04,NE,50,6.0,12.0,83,0.00,,,0.00,WUHU216DAVISVP2,2013-01-08 05:13:00,
2013-01-08 00:18:00,28.6,24.1,30.03,ENE,65,4.0,13.0,83,0.00,,,0.00,WUHU216DAVISVP2,2013-01-08 05:18:00,
2013-01-08 00:23:00,28.5,24.0,30.03,NE,49,7.0,13.0,83,0.00,,,0.00,WUHU216DAVISVP2,2013-01-08 05:23:00,
2013-01-08 00:28:00,28.5,24.0,30.03,NE,50,4.0,12.0,83,0.00,,,0.00,WUHU216DAVISVP2,2013-01-08 05:28:00,
2013-01-08 00:30:00,28.4,23.9,30.03,NE,45,5.0,13.0,83,0.00,,,0.00,WUHU216DAVISVP2,2013-01-08 05:30:00,
2013-01-08 00:33:00,28.4,24.2,30.03,North,351,5.0,10.0,84,0.00,,,0.00,WUHU216DAVISVP2,2013-01-08 05:33:00,
2013-01-08 00:38:00,28.4,24.2,30.03,NNW,348,3.0,10.0,84,0.00,,,0.00,WUHU216DAVISVP2,2013-01-08 05:38:00,
2013-01-08 00:43:00,28.3,24.1,30.02,NNE,26,6.0,10.0,84,0.00,,,0.00,WUHU216DAVISVP2,2013-01-08 05:43:00,
2013-01-08 00:48:00,28.3,24.1,30.02,NE,56,5.0,9.0,84,0.00,,,0.00,WUHU216DAVISVP2,2013-01-08 05:48:00,
2013-01-08 00:53:00,28.3,24.1,30.03,NE,52,8.0,9.0,84,0.00,,,0.00,WUHU216DAVISVP2,2013-01-08 05:53:00,
2013-01-08 00:58:00,28.4,24.4,30.03,NE,36,5.0,11.0,85,0.00,,,0.00,WUHU216DAVISVP2,2013-01-08 05:58:00,
2013-01-08 01:00:00,28.3,24.1,30.03,NE,45,5.0,11.0,84,0.00,,,0.00,WUHU216DAVISVP2,2013-01-08 06:00:00,
2013-01-08 01:03:00,28.4,24.2,30.03,NNE,15,4.0,11.0,84,0.00,,,0.00,WUHU216DAVISVP2,2013-01-08 06:03:00,
2013-01-08 01:08:00,28.3,24.1,30.03,NE,39,5.0,9.0,84,0.00,,,0.00,WUHU216DAVISVP2,2013-01-08 06:08:00,
2013-01-08 01:13:00,28.3,24.4,30.03,ENE,63,3.0,9.0,85,0.00,,,0.00,WUHU216DAVISVP2,2013-01-08 06:13:00,
2013-01-08 01:18:00,28.3,24.3,30.03,NE,36,4.0,10.0,85,0.00,,,0.00,WUHU216DAVISVP2,2013-01-08 06:18:00,
2013-01-08 01:23:00,28.2,24.2,30.03,NE,50,5.0,10.0,85,0.00,,,0.00,WUHU216DAVISVP2,2013-01-08 06:23:00,
2013-01-08 01:28:00,28.2,24.2,30.03,NNE,21,5.0,9.0,85,0.00,,,0.00,WUHU216DAVISVP2,2013-01-08 06:28:00,
2013-01-08 01:30:00,28.2,24.3,30.02,NE,45,5.0,10.0,85,0.00,,,0.00,WUHU216DAVISVP2,2013-01-08 06:30:00,
2013-01-08 01:33:00,28.2,24.2,30.02,NE,54,6.0,10.0,85,0.00,,,0.00,WUHU216DAVISVP2,2013-01-08 06:33:00,
2013-01-08 01:38:00,28.2,24.2,30.02,East,79,2.0,10.0,85,0.00,,,0.00,WUHU216DAVISVP2,2013-01-08 06:38:00,
2013-01-08 01:43:00,28.1,24.5,30.03,NE,51,4.0,9.0,86,0.00,,,0.00,WUHU216DAVISVP2,2013-01-08 06:43:00,
2013-01-08 01:48:00,28.1,24.5,30.03,NE,51,5.0,11.0,86,0.00,,,0.00,WUHU216DAVISVP2,2013-01-08 06:48:00,
2013-01-08 01:53:00,28.1,24.4,30.03,NE,41,3.0,11.0,86,0.00,,,0.00,WUHU216DAVISVP2,2013-01-08 06:53:00,
2013-01-08 01:58:00,27.9,24.2,30.04,NNE,33,5.0,10.0,86,0.00,,,0.00,WUHU216DAVISVP2,2013-01-08 06:58:00,
2013-01-08 02:00:00,27.8,24.2,30.03,NE,45,4.0,11.0,86,0.00,,,0.00,WUHU216DAVISVP2,2013-01-08 07:00:00,
2013-01-08 02:03:00,27.8,24.1,30.03,North,358,4.0,10.0,86,0.00,,,0.00,WUHU216DAVISVP2,2013-01-08 07:03:00,
2013-01-08 02:08:00,27.6,23.9,30.04,NE,51,4.0,7.0,86,0.00,,,0.00,WUHU216DAVISVP2,2013-01-08 07:08:00,
2013-01-08 02:13:00,27.5,23.8,30.04,NNW,337,1.0,7.0,86,0.00,,,0.00,WUHU216DAVISVP2,2013-01-08 07:13:00,
2013-01-08 02:18:00,27.3,23.9,30.04,NNE,29,4.0,7.0,87,0.00,,,0.00,WUHU216DAVISVP2,2013-01-08 07:18:00,
2013-01-08 02:23:00,27.2,23.8,30.04,NNE,27,1.0,7.0,87,0.00,,,0.00,WUHU216DAVISVP2,2013-01-08 07:23:00,
2013-01-08 02:28:00,27.1,23.7,30.04,NE,44,2.0,7.0,87,0.00,,,0.00,WUHU216DAVISVP2,2013-01-08 07:28:00,
2013-01-08 02:30:00,27.0,23.6,30.04,NE,45,3.0,7.0,87,0.00,,,0.00,WUHU216DAVISVP2,2013-01-08 07:30:00,
2013-01-08 02:33:00,27.0,23.6,30.04,NNE,23,1.0,7.0,87,0.00,,,0.00,WUHU216DAVISVP2,2013-01-08 07:33:00,
2013-01-08 02:38:00,27.0,23.6,30.04,NNE,19,5.0,8.0,87,0.00,,,0.00,WUHU216DAVISVP2,2013-01-08 07:38:00,
2013-01-08 02:43:00,27.0,23.6,30.04,NE,44,4.0,8.0,87,0.00,,,0.00,WUHU216DAVISVP2,2013-01-08 07:43:00,
2013-01-08 02:48:00,26.9,23.5,30.05,NNE,32,3.0,8.0,87,0.00,,,0.00,WUHU216DAVISVP2,2013-01-08 07:48:00,
2013-01-08 02:53:00,26.8,23.7,30.05,ENE,58,3.0,7.0,88,0.00,,,0.00,WUHU216DAVISVP2,2013-01-08 07:53:00,
2013-01-08 02:58:00,26.9,23.8,30.05,NE,51,6.0,8.0,88,0.00,,,0.00,WUHU216DAVISVP2,2013-01-08 07:58:00,
2013-01-08 03:00:00,26.9,23.8,30.05,NE,45,4.0,8.0,88,0.00,,,0.00,WUHU216DAVISVP2,2013-01-08 08:00:00,
2013-01-08 03:03:00,26.9,23.8,30.05,North,7,2.0,8.0,88,0.00,,,0.00,WUHU216DAVISVP2,2013-01-08 08:03:00,
2013-01-08 03:08:00,26.9,23.8,30.05,NNE,25,5.0,9.0,88,0.00,,,0.00,WUHU216DAVISVP2,2013-01-08 08:08:00,
2013-01-08 03:13:00,27.0,23.9,30.05,NE,41,3.0,9.0,88,0.00,,,0.00,WUHU216DAVISVP2,2013-01-08 08:13:00,
2013-01-08 03:18:00,26.9,23.8,30.05,NE,46,2.0,9.0,88,0.00,,,0.00,WUHU216DAVISVP2,2013-01-08 08:18:00,
2013-01-08 03:23:00,26.7,23.6,30.05,NE,49,2.0,8.0,88,0.00,,,0.00,WUHU216DAVISVP2,2013-01-08 08:23:00,
2013-01-08 03:28:00,26.6,23.5,30.05,NNE,28,2.0,8.0,88,0.00,,,0.00,WUHU216DAVISVP2,2013-01-08 08:28:00,
2013-01-08 03:30:00,26.6,23.5,30.05,NE,45,4.0,9.0,88,0.00,,,0.00,WUHU216DAVISVP2,2013-01-08 08:30:00,
2013-01-08 03:33:00,26.5,23.4,30.04,NNE,27,4.0,6.0,88,0.00,,,0.00,WUHU216DAVISVP2,2013-01-08 08:33:00,
2013-01-08 03:38:00,26.5,23.7,30.04,NNE,31,6.0,8.0,89,0.00,,,0.00,WUHU216DAVISVP2,2013-01-08 08:38:00,
2013-01-08 03:43:00,26.5,23.7,30.04,NE,39,3.0,8.0,89,0.00,,,0.00,WUHU216DAVISVP2,2013-01-08 08:43:00,
2013-01-08 03:48:00,26.4,23.6,30.04,North,352,3.0,7.0,89,0.00,,,0.00,WUHU216DAVISVP2,2013-01-08 08:48:00,
2013-01-08 03:53:00,26.4,23.6,30.05,NE,46,4.0,7.0,89,0.00,,,0.00,WUHU216DAVISVP2,2013-01-08 08:53:00,
2013-01-08 03:58:00,26.4,23.6,30.05,NNE,30,3.0,6.0,89,0.00,,,0.00,WUHU216DAVISVP2,2013-01-08 08:58:00,
2013-01-08 04:00:00,26.5,23.7,30.04,NE,45,3.0,8.0,89,0.00,,,0.00,WUHU216DAVISVP2,2013-01-08 09:00:00,
2013-01-08 04:03:00,26.5,23.9,30.05,NNE,27,4.0,7.0,90,0.00,,,0.00,WUHU216DAVISVP2,2013-01-08 09:03:00,
2013-01-08 04:08:00,26.7,23.8,30.05,NNE,26,3.0,7.0,89,0.00,,,0.00,WUHU216DAVISVP2,2013-01-08 09:08:00,
2013-01-08 04:13:00,26.7,23.8,30.04,NE,42,3.0,7.0,89,0.00,,,0.00,WUHU216DAVISVP2,2013-01-08 09:13:00,
2013-01-08 04:18:00,26.9,24.3,30.05,NE,34,5.0,8.0,90,0.00,,,0.00,WUHU216DAVISVP2,2013-01-08 09:18:00,
2013-01-08 04:23:00,27.1,24.5,30.04,NNE,21,5.0,8.0,90,0.00,,,0.00,WUHU216DAVISVP2,2013-01-08 09:23:00,
2013-01-08 04:28:00,27.2,24.3,30.05,NNE,18,4.0,8.0,89,0.00,,,0.00,WUHU216DAVISVP2,2013-01-08 09:28:00,
2013-01-08 04:30:00,27.2,24.4,30.05,NE,45,4.0,8.0,89,0.00,,,0.00,WUHU216DAVISVP2,2013-01-08 09:30:00,
2013-01-08 04:33:00,27.1,24.2,30.05,NNE,17,4.0,8.0,89,0.00,,,0.00,WUHU216DAVISVP2,2013-01-08 09:33:00,
2013-01-08 04:38:00,27.2,24.3,30.04,NNW,338,2.0,7.0,89,0.00,,,0.00,WUHU216DAVISVP2,2013-01-08 09:38:00,
2013-01-08 04:43:00,27.1,24.5,30.04,NE,46,0.0,7.0,90,0.00,,,0.00,WUHU216DAVISVP2,2013-01-08 09:43:00,
2013-01-08 04:48:00,27.2,24.6,30.05,NNE,12,2.0,6.0,90,0.00,,,0.00,WUHU216DAVISVP2,2013-01-08 09:48:00,
2013-01-08 04:53:00,27.3,24.7,30.05,North,4,3.0,6.0,90,0.00,,,0.00,WUHU216DAVISVP2,2013-01-08 09:53:00,
2013-01-08 04:58:00,27.3,24.7,30.05,NNE,23,6.0,7.0,90,0.00,,,0.00,WUHU216DAVISVP2,2013-01-08 09:58:00,
2013-01-08 05:00:00,27.3,24.8,30.05,NNE,23,3.0,7.0,90,0.00,,,0.00,WUHU216DAVISVP2,2013-01-08 10:00:00,
2013-01-08 05:03:00,27.3,24.8,30.05,NNE,25,4.0,7.0,90,0.00,,,0.00,WUHU216DAVISVP2,2013-01-08 10:03:00,
2013-01-08 05:08:00,27.3,24.7,30.05,North,5,4.0,7.0,90,0.00,,,0.00,WUHU216DAVISVP2,2013-01-08 10:08:00,
2013-01-08 05:13:00,27.4,24.9,30.05,ENE,77,5.0,9.0,90,0.00,,,0.00,WUHU216DAVISVP2,2013-01-08 10:13:00,
2013-01-08 05:18:00,27.4,24.9,30.05,NNE,15,7.0,9.0,90,0.00,,,0.00,WUHU216DAVISVP2,2013-01-08 10:18:00,
2013-01-08 05:23:00,27.4,24.5,30.05,NNE,20,0.0,8.0,89,0.00,,,0.00,WUHU216DAVISVP2,2013-01-08 10:23:00,
2013-01-08 05:28:00,27.3,24.4,30.05,North,351,3.0,8.0,89,0.00,,,0.00,WUHU216DAVISVP2,2013-01-08 10:28:00,
2013-01-08 05:30:00,27.3,24.5,30.05,NNE,23,4.0,9.0,89,0.00,,,0.00,WUHU216DAVISVP2,2013-01-08 10:30:00,
2013-01-08 05:33:00,27.3,24.4,30.05,NNE,25,4.0,7.0,89,0.00,,,0.00,WUHU216DAVISVP2,2013-01-08 10:33:00,
2013-01-08 05:38:00,27.3,24.4,30.05,North,356,2.0,8.0,89,0.00,,,0.00,WUHU216DAVISVP2,2013-01-08 10:38:00,
2013-01-08 05:43:00,27.2,24.3,30.05,NE,36,7.0,8.0,89,0.00,,,0.00,WUHU216DAVISVP2,2013-01-08 10:43:00,
2013-01-08 05:48:00,27.3,24.7,30.05,NNE,33,4.0,9.0,90,0.00,,,0.00,WUHU216DAVISVP2,2013-01-08 10:48:00,
2013-01-08 05:53:00,27.3,24.7,30.06,North,6,5.0,9.0,90,0.00,,,0.00,WUHU216DAVISVP2,2013-01-08 10:53:00,
2013-01-08 05:58:00,27.3,24.4,30.05,NNE,16,7.0,8.0,89,0.00,,,0.00,WUHU216DAVISVP2,2013-01-08 10:58:00,
2013-01-08 06:00:00,27.3,24.5,30.06,NNE,23,4.0,9.0,89,0.00,,,0.00,WUHU216DAVISVP2,2013-01-08 11:00:00,
2013-01-08 06:03:00,27.3,24.7,30.06,North,355,2.0,8.0,90,0.00,,,0.00,WUHU216DAVISVP2,2013-01-08 11:03:00,
2013-01-08 06:08:00,27.4,24.5,30.06,NNE,32,7.0,9.0,89,0.00,,,0.00,WUHU216DAVISVP2,2013-01-08 11:08:00,
2013-01-08 06:13:00,27.5,24.6,30.06,NNE,16,6.0,9.0,89,0.00,,,0.00,WUHU216DAVISVP2,2013-01-08 11:13:00,
2013-01-08 06:18:00,27.5,24.6,30.06,NE,46,7.0,9.0,89,0.00,,,0.00,WUHU216DAVISVP2,2013-01-08 11:18:00,
2013-01-08 06:23:00,27.4,24.6,30.06,NNE,25,5.0,8.0,89,0.00,,,0.00,WUHU216DAVISVP2,2013-01-08 11:23:00,
2013-01-08 06:28:00,27.4,24.5,30.06,NE,48,3.0,8.0,89,0.00,,,0.00,WUHU216DAVISVP2,2013-01-08 11:28:00,
2013-01-08 06:30:00,27.4,24.6,30.06,NNE,23,4.0,9.0,89,0.00,,,0.00,WUHU216DAVISVP2,2013-01-08 11:30:00,
2013-01-08 06:33:00,27.5,25.0,30.06,NE,42,3.0,8.0,90,0.00,,,0.00,WUHU216DAVISVP2,2013-01-08 11:33:00,
2013-01-08 06:38:00,27.5,24.6,30.06,NNE,16,2.0,7.0,89,0.00,,,0.00,WUHU216DAVISVP2,2013-01-08 11:38:00,
2013-01-08 06:43:00,27.5,24.6,30.06,NE,36,7.0,8.0,89,0.00,,,0.00,WUHU216DAVISVP2,2013-01-08 11:43:00,
2013-01-08 06:48:00,27.6,24.7,30.06,NNE,32,5.0,8.0,89,0.00,,,0.00,WUHU216DAVISVP2,2013-01-08 11:48:00,
2013-01-08 06:53:00,27.7,24.8,30.07,NE,50,4.0,8.0,89,0.00,,,0.00,WUHU216DAVISVP2,2013-01-08 11:53:00,
2013-01-08 06:58:00,27.7,24.8,30.07,North,352,1.0,7.0,89,0.00,,,0.00,WUHU216DAVISVP2,2013-01-08 11:58:00,
2013-01-08 07:00:00,27.8,25.0,30.07,NNE,23,3.0,8.0,89,0.00,,,0.00,WUHU216DAVISVP2,2013-01-08 12:00:00,
2013-01-08 07:03:00,27.8,24.9,30.06,North,6,3.0,6.0,89,0.00,,,0.00,WUHU216DAVISVP2,2013-01-08 12:03:00,
2013-01-08 07:08:00,28.0,25.1,30.07,NW,324,5.0,8.0,89,0.00,,,0.00,WUHU216DAVISVP2,2013-01-08 12:08:00,
2013-01-08 07:13:00,28.0,25.1,30.07,NNE,16,5.0,8.0,89,0.00,,,0.00,WUHU216DAVISVP2,2013-01-08 12:13:00,
2013-01-08 07:18:00,28.0,25.1,30.07,North,1,4.0,8.0,89,0.00,,,0.00,WUHU216DAVISVP2,2013-01-08 12:18:00,
2013-01-08 07:23:00,28.0,25.1,30.07,NE,46,8.0,8.0,89,0.00,,,0.00,WUHU216DAVISVP2,2013-01-08 12:23:00,
2013-01-08 07:28:00,27.9,25.0,30.07,NNE,26,5.0,8.0,89,0.00,,,0.00,WUHU216DAVISVP2,2013-01-08 12:28:00,
2013-01-08 07:30:00,27.9,25.1,30.07,NNE,23,4.0,8.0,89,0.00,,,0.00,WUHU216DAVISVP2,2013-01-08 12:30:00,
2013-01-08 07:33:00,27.8,24.9,30.07,NW,326,3.0,8.0,89,0.00,,,0.00,WUHU216DAVISVP2,2013-01-08 12:33:00,
2013-01-08 07:38:00,27.8,24.9,30.08,NNE,13,3.0,9.0,89,0.00,,,0.00,WUHU216DAVISVP2,2013-01-08 12:38:00,
2013-01-08 07:43:00,27.9,25.0,30.08,NNE,32,5.0,9.0,89,0.00,,,0.00,WUHU216DAVISVP2,2013-01-08 12:43:00,
2013-01-08 07:48:00,27.9,25.0,30.08,NE,49,6.0,9.0,89,0.00,,,0.00,WUHU216DAVISVP2,2013-01-08 12:48:00,
2013-01-08 07:53:00,27.8,25.0,30.08,North,7,5.0,9.0,89,0.00,,,0.00,WUHU216DAVISVP2,2013-01-08 12:53:00,
2013-01-08 07:58:00,27.8,25.0,30.08,NNW,335,2.0,10.0,89,0.00,,,0.00,WUHU216DAVISVP2,2013-01-08 12:58:00,
2013-01-08 08:00:00,27.7,24.9,30.08,NNE,23,4.0,10.0,89,0.00,,,0.00,WUHU216DAVISVP2,2013-01-08 13:00:00,
2013-01-08 08:03:00,27.6,24.8,30.08,NNE,19,6.0,10.0,89,0.00,,,0.00,WUHU216DAVISVP2,2013-01-08 13:03:00,
2013-01-08 08:08:00,27.5,24.6,30.08,NNW,330,4.0,9.0,89,0.00,,,0.00,WUHU216DAVISVP2,2013-01-08 13:08:00,
2013-01-08 08:13:00,27.4,24.5,30.09,NNW,341,3.0,8.0,89,0.00,,,0.00,WUHU216DAVISVP2,2013-01-08 13:13:00,
2013-01-08 08:18:00,27.1,24.3,30.09,NNW,340,3.0,8.0,89,0.00,,,0.00,WUHU216DAVISVP2,2013-01-08 13:18:00,
2013-01-08 08:23:00,26.9,24.0,30.09,NNE,25,1.0,6.0,89,0.00,,,0.00,WUHU216DAVISVP2,2013-01-08 13:23:00,
2013-01-08 08:28:00,26.7,23.8,30.09,North,1,2.0,6.0,89,0.00,,,0.00,WUHU216DAVISVP2,2013-01-08 13:28:00,
2013-01-08 08:30:00,26.6,23.8,30.09,NNW,338,3.0,7.0,89,0.00,,,0.00,WUHU216DAVISVP2,2013-01-08 13:30:00,
2013-01-08 08:33:00,26.5,23.7,30.09,North,359,2.0,5.0,89,0.00,,,0.00,WUHU216DAVISVP2,2013-01-08 13:33:00,
2013-01-08 08:38:00,26.3,23.5,30.09,NNW,338,3.0,5.0,89,0.00,,,0.00,WUHU216DAVISVP2,2013-01-08 13:38:00,
2013-01-08 08:43:00,26.2,23.6,30.10,NNE,15,2.0,6.0,90,0.00,,,0.00,WUHU216DAVISVP2,2013-01-08 13:43:00,
2013-01-08 08:48:00,26.2,23.6,30.10,North,360,3.0,6.0,90,0.00,,,0.00,WUHU216DAVISVP2,2013-01-08 13:48:00,
2013-01-08 08:53:00,26.2,23.6,30.10,North,353,3.0,6.0,90,0.00,,,0.00,WUHU216DAVISVP2,2013-01-08 13:53:00,
2013-01-08 08:58:00,26.2,23.4,30.10,NNW,333,2.0,6.0,89,0.00,,,0.00,WUHU216DAVISVP2,2013-01-08 13:58:00,
2013-01-08 09:00:00,26.1,23.3,30.10,NNW,338,3.0,6.0,89,0.00,,,0.00,WUHU216DAVISVP2,2013-01-08 14:00:00,
2013-01-08 09:03:00,26.1,23.3,30.10,NNW,341,4.0,6.0,89,0.00,,,0.00,WUHU216DAVISVP2,2013-01-08 14:03:00,
2013-01-08 09:08:00,26.0,23.2,30.10,NNE,17,3.0,6.0,89,0.00,,,0.00,WUHU216DAVISVP2,2013-01-08 14:08:00,
2013-01-08 09:13:00,26.0,23.2,30.10,NNW,345,2.0,6.0,89,0.00,,,0.00,WUHU216DAVISVP2,2013-01-08 14:13:00,
2013-01-08 09:18:00,25.9,23.1,30.11,North,7,2.0,6.0,89,0.00,,,0.00,WUHU216DAVISVP2,2013-01-08 14:18:00,
2013-01-08 09:23:00,26.0,23.2,30.11,NNW,336,2.0,6.0,89,0.00,,,0.00,WUHU216DAVISVP2,2013-01-08 14:23:00,
2013-01-08 09:28:00,26.1,23.3,30.11,NNE,17,3.0,6.0,89,0.00,,,0.00,WUHU216DAVISVP2,2013-01-08 14:28:00,
2013-01-08 09:30:00,26.1,23.3,30.11,NNW,338,3.0,6.0,89,0.00,,,0.00,WUHU216DAVISVP2,2013-01-08 14:30:00,
2013-01-08 09:33:00,26.2,23.4,30.11,NNE,20,3.0,4.0,89,0.00,,,0.00,WUHU216DAVISVP2,2013-01-08 14:33:00,
2013-01-08 09:38:00,26.4,23.6,30.11,NNW,347,3.0,5.0,89,0.00,,,0.00,WUHU216DAVISVP2,2013-01-08 14:38:00,
2013-01-08 09:43:00,26.9,24.0,30.11,NNE,31,3.0,5.0,89,0.00,,,0.00,WUHU216DAVISVP2,2013-01-08 14:43:00,
2013-01-08 09:48:00,27.3,24.2,30.11,NNE,13,3.0,5.0,88,0.00,,,0.00,WUHU216DAVISVP2,2013-01-08 14:48:00,
2013-01-08 09:53:00,27.8,24.4,30.11,NNE,21,6.0,7.0,87,0.00,,,0.00,WUHU216DAVISVP2,2013-01-08 14:53:00,
2013-01-08 09:58:00,28.2,24.6,30.11,NNE,19,4.0,7.0,86,0.00,,,0.00,WUHU216DAVISVP2,2013-01-08 14:58:00,
2013-01-08 10:00:00,28.3,24.6,30.11,NNE,23,3.0,7.0,86,0.00,,,0.00,WUHU216DAVISVP2,2013-01-08 15:00:00,
2013-01-08 10:03:00,28.6,25.2,30.11,NNE,31,1.0,7.0,87,0.00,,,0.00,WUHU216DAVISVP2,2013-01-08 15:03:00,
2013-01-08 10:08:00,29.0,25.1,30.11,NE,41,3.0,8.0,85,0.00,,,0.00,WUHU216DAVISVP2,2013-01-08 15:08:00,
2013-01-08 10:13:00,29.3,25.4,30.11,NE,53,4.0,8.0,85,0.00,,,0.00,WUHU216DAVISVP2,2013-01-08 15:13:00,
2013-01-08 10:18:00,29.7,25.7,30.11,NNW,331,3.0,7.0,85,0.00,,,0.00,WUHU216DAVISVP2,2013-01-08 15:18:00,
2013-01-08 10:23:00,30.2,25.9,30.12,North,11,3.0,7.0,84,0.00,,,0.00,WUHU216DAVISVP2,2013-01-08 15:23:00,
2013-01-08 10:28:00,30.4,25.8,30.12,NNE,26,4.0,7.0,83,0.00,,,0.00,WUHU216DAVISVP2,2013-01-08 15:28:00,
2013-01-08 10:30:00,30.5,26.0,30.11,NNE,23,3.0,8.0,83,0.00,,,0.00,WUHU216DAVISVP2,2013-01-08 15:30:00,
2013-01-08 10:33:00,30.6,26.0,30.12,NNE,26,1.0,7.0,83,0.00,,,0.00,WUHU216DAVISVP2,2013-01-08 15:33:00,
2013-01-08 10:38:00,30.8,26.2,30.12,NNE,26,0.0,7.0,83,0.00,,,0.00,WUHU216DAVISVP2,2013-01-08 15:38:00,
2013-01-08 10:43:00,31.1,26.5,30.12,NE,41,1.0,7.0,83,0.00,,,0.00,WUHU216DAVISVP2,2013-01-08 15:43:00,
2013-01-08 10:48:00,31.4,26.8,30.12,NE,53,2.0,6.0,83,0.00,,,0.00,WUHU216DAVISVP2,2013-01-08 15:48:00,
2013-01-08 10:53:00,31.7,26.8,30.12,NNE,17,4.0,6.0,82,0.00,,,0.00,WUHU216DAVISVP2,2013-01-08 15:53:00,
2013-01-08 10:58:00,31.8,26.9,30.12,NNE,32,5.0,10.0,82,0.00,,,0.00,WUHU216DAVISVP2,2013-01-08 15:58:00,
2013-01-08 11:00:00,32.0,27.1,30.12,NE,45,3.0,10.0,82,0.00,,,0.00,WUHU216DAVISVP2,2013-01-08 16:00:00,
2013-01-08 11:03:00,32.1,27.2,30.12,NNW,342,2.0,10.0,82,0.00,,,0.00,WUHU216DAVISVP2,2013-01-08 16:03:00,
2013-01-08 11:08:00,32.3,27.4,30.12,NE,41,1.0,9.0,82,0.00,,,0.00,WUHU216DAVISVP2,2013-01-08 16:08:00,
2013-01-08 11:13:00,32.4,27.5,30.12,NNE,29,5.0,9.0,82,0.00,,,0.00,WUHU216DAVISVP2,2013-01-08 16:13:00,
2013-01-08 11:18:00,32.8,27.9,30.12,NE,49,4.0,8.0,82,0.00,,,0.00,WUHU216DAVISVP2,2013-01-08 16:18:00,
2013-01-08 11:23:00,32.8,27.9,30.11,NE,36,4.0,8.0,82,0.00,,,0.00,WUHU216DAVISVP2,2013-01-08 16:23:00,
2013-01-08 11:28:00,32.9,28.0,30.11,North,6,4.0,8.0,82,0.00,,,0.00,WUHU216DAVISVP2,2013-01-08 16:28:00,
2013-01-08 11:30:00,33.0,28.1,30.11,NE,45,4.0,8.0,82,0.00,,,0.00,WUHU216DAVISVP2,2013-01-08 16:30:00,
2013-01-08 11:33:00,33.3,28.1,30.11,NNE,23,2.0,7.0,81,0.00,,,0.00,WUHU216DAVISVP2,2013-01-08 16:33:00,
2013-01-08 11:38:00,33.9,28.7,30.11,North,352,3.0,7.0,81,0.00,,,0.00,WUHU216DAVISVP2,2013-01-08 16:38:00,
2013-01-08 11:43:00,34.1,28.6,30.10,North,349,3.0,8.0,80,0.00,,,0.00,WUHU216DAVISVP2,2013-01-08 16:43:00,
2013-01-08 11:48:00,34.4,28.9,30.10,North,11,3.0,8.0,80,0.00,,,0.00,WUHU216DAVISVP2,2013-01-08 16:48:00,
2013-01-08 11:53:00,35.0,29.2,30.10,NNW,346,4.0,7.0,79,0.00,,,0.00,WUHU216DAVISVP2,2013-01-08 16:53:00,
2013-01-08 11:58:00,35.5,29.6,30.10,NNE,32,5.0,7.0,79,0.00,,,0.00,WUHU216DAVISVP2,2013-01-08 16:58:00,
2013-01-08 12:00:00,35.7,29.5,30.10,NNE,23,3.0,8.0,78,0.00,,,0.00,WUHU216DAVISVP2,2013-01-08 17:00:00,
2013-01-08 12:03:00,35.8,29.6,30.10,NE,46,4.0,7.0,78,0.00,,,0.00,WUHU216DAVISVP2,2013-01-08 17:03:00,
2013-01-08 12:08:00,36.2,29.7,30.10,NE,47,2.0,8.0,77,0.00,,,0.00,WUHU216DAVISVP2,2013-01-08 17:08:00,
2013-01-08 12:13:00,36.3,29.8,30.10,NE,34,7.0,9.0,77,0.00,,,0.00,WUHU216DAVISVP2,2013-01-08 17:13:00,
2013-01-08 12:18:00,36.3,29.8,30.10,North,11,5.0,9.0,77,0.00,,,0.00,WUHU216DAVISVP2,2013-01-08 17:18:00,
2013-01-08 12:23:00,36.4,29.9,30.10,NE,41,8.0,9.0,77,0.00,,,0.00,WUHU216DAVISVP2,2013-01-08 17:23:00,
2013-01-08 12:28:00,36.3,30.1,30.10,NNE,31,5.0,9.0,78,0.00,,,0.00,WUHU216DAVISVP2,2013-01-08 17:28:00,
2013-01-08 12:30:00,36.5,30.3,30.09,NNE,23,5.0,9.0,78,0.00,,,0.00,WUHU216DAVISVP2,2013-01-08 17:30:00,
2013-01-08 12:33:00,36.6,30.1,30.09,NW,316,4.0,9.0,77,0.00,,,0.00,WUHU216DAVISVP2,2013-01-08 17:33:00,
2013-01-08 12:38:00,37.1,30.6,30.09,NNE,18,8.0,9.0,77,0.00,,,0.00,WUHU216DAVISVP2,2013-01-08 17:38:00,
2013-01-08 12:43:00,37.1,30.3,30.09,NNE,23,2.0,9.0,76,0.00,,,0.00,WUHU216DAVISVP2,2013-01-08 17:43:00,
2013-01-08 12:48:00,37.3,30.8,30.09,NNW,332,3.0,9.0,77,0.00,,,0.00,WUHU216DAVISVP2,2013-01-08 17:48:00,
2013-01-08 12:53:00,37.5,30.7,30.09,NNE,27,2.0,9.0,76,0.00,,,0.00,WUHU216DAVISVP2,2013-01-08 17:53:00,
2013-01-08 12:58:00,37.7,30.5,30.09,NNW,345,3.0,9.0,75,0.00,,,0.00,WUHU216DAVISVP2,2013-01-08 17:58:00,
2013-01-08 13:00:00,37.6,30.4,30.09,NNE,23,4.0,9.0,75,0.00,,,0.00,WUHU216DAVISVP2,2013-01-08 18:00:00,
2013-01-08 13:03:00,37.3,30.5,30.09,ENE,62,2.0,9.0,76,0.00,,,0.00,WUHU216DAVISVP2,2013-01-08 18:03:00,
2013-01-08 13:08:00,37.2,30.7,30.08,NE,40,0.0,9.0,77,0.00,,,0.00,WUHU216DAVISVP2,2013-01-08 18:08:00,
2013-01-08 13:13:00,37.3,30.1,30.08,NE,40,4.0,8.0,75,0.00,,,0.00,WUHU216DAVISVP2,2013-01-08 18:13:00,
2013-01-08 13:18:00,36.9,29.7,30.08,NNE,16,2.0,8.0,75,0.00,,,0.00,WUHU216DAVISVP2,2013-01-08 18:18:00,
2013-01-08 13:23:00,37.0,30.1,30.08,North,1,3.0,8.0,76,0.00,,,0.00,WUHU216DAVISVP2,2013-01-08 18:23:00,
2013-01-08 13:28:00,37.3,30.1,30.08,NNW,340,3.0,8.0,75,0.00,,,0.00,WUHU216DAVISVP2,2013-01-08 18:28:00,
2013-01-08 13:30:00,37.5,30.3,30.08,NE,45,3.0,9.0,75,0.00,,,0.00,WUHU216DAVISVP2,2013-01-08 18:30:00,
2013-01-08 13:33:00,37.8,30.3,30.08,NNW,340,3.0,7.0,74,0.00,,,0.00,WUHU216DAVISVP2,2013-01-08 18:33:00,
2013-01-08 13:39:00,38.0,30.5,30.08,NNW,339,3.0,6.0,74,0.00,,,0.00,WUHU216DAVISVP2,2013-01-08 18:39:00,
2013-01-08 13:43:00,38.3,30.8,30.08,North,350,2.0,6.0,74,0.00,,,0.00,WUHU216DAVISVP2,2013-01-08 18:43:00,
2013-01-08 13:48:00,38.1,29.9,30.08,NW,324,4.0,7.0,72,0.00,,,0.00,WUHU216DAVISVP2,2013-01-08 18:48:00,
2013-01-08 13:54:00,38.1,30.6,30.08,NNW,347,4.0,8.0,74,0.00,,,0.00,WUHU216DAVISVP2,2013-01-08 18:54:00,
2013-01-08 13:59:00,38.2,30.0,30.08,NNE,18,2.0,8.0,72,0.00,,,0.00,WUHU216DAVISVP2,2013-01-08 18:59:00,
2013-01-08 14:00:00,38.1,29.9,30.08,NNW,338,3.0,7.0,72,0.00,,,0.00,WUHU216DAVISVP2,2013-01-08 19:00:00,
2013-01-08 14:04:00,38.0,30.2,30.08,NW,321,3.0,8.0,73,0.00,,,0.00,WUHU216DAVISVP2,2013-01-08 19:04:00,
2013-01-08 14:09:00,38.3,30.1,30.08,NNE,19,3.0,7.0,72,0.00,,,0.00,WUHU216DAVISVP2,2013-01-08 19:09:00,
2013-01-08 14:14:00,38.5,30.3,30.08,NW,314,5.0,7.0,72,0.00,,,0.00,WUHU216DAVISVP2,2013-01-08 19:14:00,
2013-01-08 14:19:00,38.4,29.9,30.08,North,8,3.0,7.0,71,0.00,,,0.00,WUHU216DAVISVP2,2013-01-08 19:19:00,
2013-01-08 14:24:00,38.3,29.8,30.08,NNE,19,3.0,8.0,71,0.00,,,0.00,WUHU216DAVISVP2,2013-01-08 19:24:00,
2013-01-08 14:29:00,38.1,29.3,30.08,North,354,4.0,10.0,70,0.00,,,0.00,WUHU216DAVISVP2,2013-01-08 19:29:00,
2013-01-08 14:30:00,38.1,29.2,30.08,NNW,338,4.0,10.0,70,0.00,,,0.00,WUHU216DAVISVP2,2013-01-08 19:30:00,
2013-01-08 14:34:00,38.0,29.2,30.07,NNE,15,3.0,10.0,70,0.00,,,0.00,WUHU216DAVISVP2,2013-01-08 19:34:00,
2013-01-08 14:39:00,38.0,29.5,30.08,North,356,5.0,10.0,71,0.00,,,0.00,WUHU216DAVISVP2,2013-01-08 19:39:00,
2013-01-08 14:44:00,37.9,29.4,30.08,NNW,337,7.0,10.0,71,0.00,,,0.00,WUHU216DAVISVP2,2013-01-08 19:44:00,
2013-01-08 14:49:00,37.5,28.7,30.08,NNW,340,5.0,10.0,70,0.00,,,0.00,WUHU216DAVISVP2,2013-01-08 19:49:00,
2013-01-08 14:54:00,37.4,28.9,30.08,NW,326,2.0,10.0,71,0.00,,,0.00,WUHU216DAVISVP2,2013-01-08 19:54:00,
2013-01-08 14:59:00,37.2,28.7,30.08,NW,309,2.0,9.0,71,0.00,,,0.00,WUHU216DAVISVP2,2013-01-08 19:59:00,
2013-01-08 15:00:00,37.1,28.6,30.08,NNW,338,4.0,10.0,71,0.00,,,0.00,WUHU216DAVISVP2,2013-01-08 20:00:00,
2013-01-08 15:04:00,36.9,28.8,30.08,NNW,339,6.0,9.0,72,0.00,,,0.00,WUHU216DAVISVP2,2013-01-08 20:04:00,
2013-01-08 15:09:00,36.9,28.8,30.08,NW,321,2.0,8.0,72,0.00,,,0.00,WUHU216DAVISVP2,2013-01-08 20:09:00,
2013-01-08 15:14:00,37.0,28.5,30.08,NNW,337,4.0,8.0,71,0.00,,,0.00,WUHU216DAVISVP2,2013-01-08 20:14:00,
2013-01-08 15:19:00,37.1,28.6,30.08,North,356,7.0,8.0,71,0.00,,,0.00,WUHU216DAVISVP2,2013-01-08 20:19:00,
2013-01-08 15:24:00,37.1,28.6,30.08,NNE,13,2.0,8.0,71,0.00,,,0.00,WUHU216DAVISVP2,2013-01-08 20:24:00,
2013-01-08 15:29:00,37.1,28.3,30.08,NNE,20,6.0,8.0,70,0.00,,,0.00,WUHU216DAVISVP2,2013-01-08 20:29:00,
2013-01-08 15:30:00,37.1,28.6,30.08,NNW,338,4.0,8.0,71,0.00,,,0.00,WUHU216DAVISVP2,2013-01-08 20:30:00,
2013-01-08 15:34:00,37.1,28.3,30.09,NW,325,3.0,7.0,70,0.00,,,0.00,WUHU216DAVISVP2,2013-01-08 20:34:00,
2013-01-08 15:39:00,37.0,28.2,30.09,North,352,6.0,10.0,70,0.00,,,0.00,WUHU216DAVISVP2,2013-01-08 20:39:00,
2013-01-08 15:44:00,36.8,28.0,30.09,North,356,5.0,10.0,70,0.00,,,0.00,WUHU216DAVISVP2,2013-01-08 20:44:00,
2013-01-08 15:49:00,36.6,27.8,30.09,NNE,26,7.0,14.0,70,0.00,,,0.00,WUHU216DAVISVP2,2013-01-08 20:49:00,
2013-01-08 15:54:00,36.2,27.4,30.09,North,351,5.0,14.0,70,0.00,,,0.00,WUHU216DAVISVP2,2013-01-08 20:54:00,
2013-01-08 15:59:00,35.9,27.4,30.09,NNE,32,10.0,14.0,71,0.01,,,0.01,WUHU216DAVISVP2,2013-01-08 20:59:00,
2013-01-08 16:00:00,35.8,27.3,30.09,NNE,23,5.0,14.0,71,0.00,,,0.00,WUHU216DAVISVP2,2013-01-08 21:00:00,
2013-01-08 16:04:00,35.7,27.3,30.09,NNE,23,3.0,11.0,71,0.01,,,0.01,WUHU216DAVISVP2,2013-01-08 21:04:00,
2013-01-08 16:09:00,35.6,27.5,30.09,North,354,6.0,10.0,72,0.01,,,0.01,WUHU216DAVISVP2,2013-01-08 21:09:00,
2013-01-08 16:14:00,35.5,27.4,30.09,NNW,343,2.0,10.0,72,0.01,,,0.01,WUHU216DAVISVP2,2013-01-08 21:14:00,
2013-01-08 16:19:00,35.3,27.2,30.09,NNW,340,3.0,7.0,72,0.01,,,0.01,WUHU216DAVISVP2,2013-01-08 21:19:00,
2013-01-08 16:24:00,35.2,27.5,30.09,NNW,343,3.0,7.0,73,0.01,,,0.01,WUHU216DAVISVP2,2013-01-08 21:24:00,
2013-01-08 16:29:00,35.0,27.3,30.08,NNW,337,1.0,7.0,73,0.01,,,0.01,WUHU216DAVISVP2,2013-01-08 21:29:00,
2013-01-08 16:30:00,35.0,27.2,30.08,North,0,3.0,8.0,73,0.01,,,0.01,WUHU216DAVISVP2,2013-01-08 21:30:00,
2013-01-08 16:34:00,34.9,27.2,30.08,NNW,330,1.0,6.0,73,0.01,,,0.01,WUHU216DAVISVP2,2013-01-08 21:34:00,
2013-01-08 16:39:00,34.7,27.3,30.08,NNW,330,2.0,5.0,74,0.01,,,0.01,WUHU216DAVISVP2,2013-01-08 21:39:00,
2013-01-08 16:44:00,34.5,27.1,30.08,NW,319,2.0,3.0,74,0.01,,,0.01,WUHU216DAVISVP2,2013-01-08 21:44:00,
2013-01-08 16:49:00,34.5,27.1,30.08,North,356,1.0,3.0,74,0.01,,,0.01,WUHU216DAVISVP2,2013-01-08 21:49:00,
2013-01-08 16:54:00,34.5,27.4,30.08,NW,315,1.0,7.0,75,0.01,,,0.01,WUHU216DAVISVP2,2013-01-08 21:54:00,
2013-01-08 16:59:00,34.4,27.3,30.08,NW,315,3.0,7.0,75,0.00,,,0.01,WUHU216DAVISVP2,2013-01-08 21:59:00,
2013-01-08 17:00:00,34.4,27.3,30.08,NNW,338,2.0,6.0,75,0.00,,,0.01,WUHU216DAVISVP2,2013-01-08 22:00:00,
2013-01-08 17:04:00,34.3,27.2,30.08,West,281,2.0,7.0,75,0.00,,,0.01,WUHU216DAVISVP2,2013-01-08 22:04:00,
2013-01-08 17:09:00,34.2,27.5,30.08,NW,313,3.0,5.0,76,0.00,,,0.01,WUHU216DAVISVP2,2013-01-08 22:09:00,
2013-01-08 17:14:00,34.1,27.4,30.08,WNW,290,3.0,5.0,76,0.00,,,0.01,WUHU216DAVISVP2,2013-01-08 22:14:00,
2013-01-08 17:19:00,33.9,27.1,30.08,WNW,301,2.0,5.0,76,0.00,,,0.01,WUHU216DAVISVP2,2013-01-08 22:19:00,
2013-01-08 17:24:00,33.8,27.4,30.08,WNW,298,2.0,5.0,77,0.00,,,0.01,WUHU216DAVISVP2,2013-01-08 22:24:00,
2013-01-08 17:29:00,33.6,27.2,30.08,NW,311,2.0,5.0,77,0.00,,,0.01,WUHU216DAVISVP2,2013-01-08 22:29:00,
2013-01-08 17:30:00,33.6,27.2,30.08,NW,315,2.0,5.0,77,0.00,,,0.01,WUHU216DAVISVP2,2013-01-08 22:30:00,
2013-01-08 17:34:00,33.5,27.1,30.09,NNW,329,3.0,5.0,77,0.00,,,0.01,WUHU216DAVISVP2,2013-01-08 22:34:00,
2013-01-08 17:39:00,33.3,26.9,30.09,NW,318,2.0,6.0,77,0.00,,,0.01,WUHU216DAVISVP2,2013-01-08 22:39:00,
2013-01-08 17:44:00,33.2,27.1,30.08,NW,319,4.0,6.0,78,0.00,,,0.01,WUHU216DAVISVP2,2013-01-08 22:44:00,
2013-01-08 17:49:00,33.1,27.0,30.08,NW,311,5.0,6.0,78,0.00,,,0.01,WUHU216DAVISVP2,2013-01-08 22:49:00,
2013-01-08 17:54:00,33.1,27.0,30.08,NW,309,4.0,6.0,78,0.00,,,0.01,WUHU216DAVISVP2,2013-01-08 22:54:00,
2013-01-08 17:59:00,33.1,27.0,30.08,NW,305,3.0,6.0,78,0.00,,,0.01,WUHU216DAVISVP2,2013-01-08 22:59:00,
2013-01-08 18:00:00,33.0,26.9,30.08,NW,315,3.0,6.0,78,0.00,,,0.01,WUHU216DAVISVP2,2013-01-08 23:00:00,
2013-01-08 18:04:00,33.0,26.9,30.08,NW,308,4.0,6.0,78,0.00,,,0.01,WUHU216DAVISVP2,2013-01-08 23:04:00,
2013-01-08 18:09:00,32.8,26.7,30.07,NW,306,4.0,6.0,78,0.00,,,0.01,WUHU216DAVISVP2,2013-01-08 23:09:00,
2013-01-08 18:14:00,32.6,26.8,30.07,NW,314,2.0,6.0,79,0.00,,,0.01,WUHU216DAVISVP2,2013-01-08 23:14:00,
2013-01-08 18:19:00,32.5,26.7,30.07,WNW,298,4.0,6.0,79,0.00,,,0.01,WUHU216DAVISVP2,2013-01-08 23:19:00,
2013-01-08 18:24:00,32.3,26.8,30.07,WNW,293,4.0,6.0,80,0.00,,,0.01,WUHU216DAVISVP2,2013-01-08 23:24:00,
2013-01-08 18:29:00,32.2,26.7,30.07,WNW,293,2.0,6.0,80,0.00,,,0.01,WUHU216DAVISVP2,2013-01-08 23:29:00,
2013-01-08 18:30:00,32.3,26.8,30.07,WNW,293,3.0,6.0,80,0.00,,,0.01,WUHU216DAVISVP2,2013-01-08 23:30:00,
2013-01-08 18:34:00,32.2,26.7,30.07,NNW,335,3.0,6.0,80,0.00,,,0.01,WUHU216DAVISVP2,2013-01-08 23:34:00,
2013-01-08 18:39:00,32.3,26.8,30.07,WNW,288,2.0,6.0,80,0.00,,,0.01,WUHU216DAVISVP2,2013-01-08 23:39:00,
2013-01-08 18:44:00,32.3,26.8,30.06,West,276,2.0,7.0,80,0.00,,,0.01,WUHU216DAVISVP2,2013-01-08 23:44:00,
2013-01-08 18:49:00,32.3,26.8,30.06,NNW,330,3.0,7.0,80,0.00,,,0.01,WUHU216DAVISVP2,2013-01-08 23:49:00,
2013-01-08 18:54:00,32.3,26.8,30.07,NW,315,3.0,7.0,80,0.00,,,0.01,WUHU216DAVISVP2,2013-01-08 23:54:00,
2013-01-08 18:59:00,32.4,26.9,30.07,NW,324,5.0,6.0,80,0.00,,,0.01,WUHU216DAVISVP2,2013-01-08 23:59:00,
2013-01-08 19:00:00,32.4,26.9,30.06,NW,315,3.0,7.0,80,0.00,,,0.01,WUHU216DAVISVP2,2013-01-09 00:00:00,
2013-01-08 19:04:00,32.5,27.0,30.06,North,11,3.0,7.0,80,0.00,,,0.01,WUHU216DAVISVP2,2013-01-09 00:04:00,
2013-01-08 19:09:00,32.7,26.9,30.06,NNW,338,2.0,8.0,79,0.00,,,0.01,WUHU216DAVISVP2,2013-01-09 00:09:00,
2013-01-08 19:14:00,32.9,27.1,30.06,NNW,330,4.0,8.0,79,0.00,,,0.01,WUHU216DAVISVP2,2013-01-09 00:14:00,
2013-01-08 19:19:00,32.9,26.8,30.06,NNW,340,6.0,8.0,78,0.00,,,0.01,WUHU216DAVISVP2,2013-01-09 00:19:00,
2013-01-08 19:24:00,33.1,27.0,30.06,NNW,337,6.0,9.0,78,0.00,,,0.01,WUHU216DAVISVP2,2013-01-09 00:24:00,
2013-01-08 19:29:00,33.1,27.0,30.06,NNW,335,2.0,9.0,78,0.00,,,0.01,WUHU216DAVISVP2,2013-01-09 00:29:00,
2013-01-08 19:30:00,33.0,26.9,30.06,NNW,338,4.0,9.0,78,0.00,,,0.01,WUHU216DAVISVP2,2013-01-09 00:30:00,
2013-01-08 19:34:00,32.9,26.8,30.06,NNW,336,3.0,9.0,78,0.00,,,0.01,WUHU216DAVISVP2,2013-01-09 00:34:00,
2013-01-08 19:39:00,32.8,26.7,30.06,NNW,344,4.0,9.0,78,0.00,,,0.01,WUHU216DAVISVP2,2013-01-09 00:39:00,
2013-01-08 19:44:00,32.7,26.6,30.05,North,9,5.0,10.0,78,0.00,,,0.01,WUHU216DAVISVP2,2013-01-09 00:44:00,
2013-01-08 19:49:00,32.7,26.6,30.05,NNE,22,4.0,10.0,78,0.00,,,0.01,WUHU216DAVISVP2,2013-01-09 00:49:00,
2013-01-08 19:54:00,32.7,26.6,30.04,NNE,23,7.0,10.0,78,0.00,,,0.01,WUHU216DAVISVP2,2013-01-09 00:54:00,
2013-01-08 19:59:00,32.6,26.5,30.05,North,356,5.0,11.0,78,0.00,,,0.01,WUHU216DAVISVP2,2013-01-09 00:59:00,
2013-01-08 20:00:00,32.7,26.6,30.05,NNW,338,5.0,11.0,78,0.00,,,0.01,WUHU216DAVISVP2,2013-01-09 01:00:00,
2013-01-08 20:04:00,32.7,26.6,30.05,NNW,342,5.0,11.0,78,0.00,,,0.01,WUHU216DAVISVP2,2013-01-09 01:04:00,
2013-01-08 20:09:00,32.7,26.6,30.04,NNW,330,4.0,10.0,78,0.00,,,0.01,WUHU216DAVISVP2,2013-01-09 01:09:00,
2013-01-08 20:14:00,32.6,26.5,30.04,NNE,15,10.0,10.0,78,0.00,,,0.01,WUHU216DAVISVP2,2013-01-09 01:14:00,
2013-01-08 20:19:00,32.8,26.4,30.04,ENE,60,7.0,10.0,77,0.00,,,0.01,WUHU216DAVISVP2,2013-01-09 01:19:00,
2013-01-08 20:24:00,32.8,26.1,30.04,North,356,8.0,10.0,76,0.00,,,0.01,WUHU216DAVISVP2,2013-01-09 01:24:00,
2013-01-08 20:29:00,32.9,26.2,30.04,NNW,333,7.0,11.0,76,0.00,,,0.01,WUHU216DAVISVP2,2013-01-09 01:29:00,
2013-01-08 20:30:00,32.9,26.2,30.04,NNW,338,6.0,11.0,76,0.00,,,0.01,WUHU216DAVISVP2,2013-01-09 01:30:00,
2013-01-08 20:34:00,32.9,26.2,30.04,NNE,20,10.0,13.0,76,0.00,,,0.01,WUHU216DAVISVP2,2013-01-09 01:34:00,
2013-01-08 20:39:00,33.1,26.1,30.04,North,6,4.0,13.0,75,0.00,,,0.01,WUHU216DAVISVP2,2013-01-09 01:39:00,
2013-01-08 20:44:00,33.1,26.1,30.04,NNE,19,5.0,13.0,75,0.00,,,0.01,WUHU216DAVISVP2,2013-01-09 01:44:00,
2013-01-08 20:49:00,33.1,26.4,30.04,NE,36,6.0,14.0,76,0.00,,,0.01,WUHU216DAVISVP2,2013-01-09 01:49:00,
2013-01-08 20:54:00,33.0,26.3,30.04,NE,39,6.0,14.0,76,0.00,,,0.01,WUHU216DAVISVP2,2013-01-09 01:54:00,
2013-01-08 20:59:00,33.0,26.3,30.04,NNE,17,4.0,13.0,76,0.00,,,0.01,WUHU216DAVISVP2,2013-01-09 01:59:00,
2013-01-08 21:00:00,32.9,26.2,30.04,NNE,23,6.0,14.0,76,0.00,,,0.01,WUHU216DAVISVP2,2013-01-09 02:00:00,
2013-01-08 21:04:00,32.8,26.1,30.04,North,358,7.0,13.0,76,0.00,,,0.01,WUHU216DAVISVP2,2013-01-09 02:04:00,
2013-01-08 21:09:00,32.7,26.0,30.04,NNE,24,13.0,13.0,76,0.00,,,0.01,WUHU216DAVISVP2,2013-01-09 02:09:00,
2013-01-08 21:14:00,32.7,26.3,30.04,North,8,7.0,14.0,77,0.00,,,0.01,WUHU216DAVISVP2,2013-01-09 02:14:00,
2013-01-08 21:19:00,32.7,26.3,30.04,NE,36,6.0,14.0,77,0.00,,,0.01,WUHU216DAVISVP2,2013-01-09 02:19:00,
2013-01-08 21:24:00,32.6,26.2,30.04,NE,44,6.0,13.0,77,0.00,,,0.01,WUHU216DAVISVP2,2013-01-09 02:24:00,
2013-01-08 21:29:00,32.5,26.1,30.04,NNW,345,6.0,13.0,77,0.00,,,0.01,WUHU216DAVISVP2,2013-01-09 02:29:00,
2013-01-08 21:30:00,32.5,26.1,30.03,NNE,23,6.0,14.0,77,0.00,,,0.01,WUHU216DAVISVP2,2013-01-09 02:30:00,
2013-01-08 21:34:00,32.5,26.1,30.03,North,353,9.0,12.0,77,0.00,,,0.01,WUHU216DAVISVP2,2013-01-09 02:34:00,
2013-01-08 21:39:00,32.4,26.3,30.04,NNW,336,5.0,14.0,78,0.00,,,0.01,WUHU216DAVISVP2,2013-01-09 02:39:00,
2013-01-08 21:44:00,32.3,26.2,30.04,North,6,8.0,14.0,78,0.00,,,0.01,WUHU216DAVISVP2,2013-01-09 02:44:00,
2013-01-08 21:49:00,32.3,26.2,30.04,NE,38,6.0,12.0,78,0.00,,,0.01,WUHU216DAVISVP2,2013-01-09 02:49:00,
2013-01-08 21:54:00,32.2,26.1,30.04,NE,42,8.0,12.0,78,0.00,,,0.01,WUHU216DAVISVP2,2013-01-09 02:54:00,
2013-01-08 21:59:00,32.1,26.0,30.04,North,4,8.0,14.0,78,0.00,,,0.01,WUHU216DAVISVP2,2013-01-09 02:59:00,
2013-01-08 22:00:00,32.1,26.0,30.04,NNE,23,6.0,14.0,78,0.00,,,0.01,WUHU216DAVISVP2,2013-01-09 03:00:00,
2013-01-08 22:04:00,32.0,25.9,30.04,NW,321,4.0,14.0,78,0.00,,,0.01,WUHU216DAVISVP2,2013-01-09 03:04:00,
2013-01-08 22:09:00,31.8,26.0,30.04,North,9,7.0,14.0,79,0.00,,,0.01,WUHU216DAVISVP2,2013-01-09 03:09:00,
2013-01-08 22:14:00,31.7,25.9,30.04,North,356,6.0,13.0,79,0.00,,,0.01,WUHU216DAVISVP2,2013-01-09 03:14:00,
2013-01-08 22:19:00,31.7,25.9,30.03,NNW,330,5.0,11.0,79,0.00,,,0.01,WUHU216DAVISVP2,2013-01-09 03:19:00,
2013-01-08 22:24:00,31.8,26.0,30.03,North,7,4.0,11.0,79,0.00,,,0.01,WUHU216DAVISVP2,2013-01-09 03:24:00,
2013-01-08 22:29:00,31.7,25.9,30.02,NNW,335,4.0,11.0,79,0.00,,,0.01,WUHU216DAVISVP2,2013-01-09 03:29:00,
2013-01-08 22:30:00,31.6,25.8,30.02,NNW,338,5.0,11.0,79,0.00,,,0.01,WUHU216DAVISVP2,2013-01-09 03:30:00,
2013-01-08 22:34:00,31.6,25.8,30.02,NNW,339,4.0,11.0,79,0.00,,,0.01,WUHU216DAVISVP2,2013-01-09 03:34:00,
2013-01-08 22:39:00,31.4,26.0,30.01,NW,315,6.0,11.0,80,0.00,,,0.01,WUHU216DAVISVP2,2013-01-09 03:39:00,
2013-01-08 22:44:00,31.3,25.9,30.01,NNW,345,3.0,10.0,80,0.00,,,0.01,WUHU216DAVISVP2,2013-01-09 03:44:00,
2013-01-08 22:49:00,31.2,25.8,30.01,NNW,335,4.0,9.0,80,0.00,,,0.01,WUHU216DAVISVP2,2013-01-09 03:49:00,
2013-01-08 22:54:00,31.3,25.9,30.01,North,4,5.0,9.0,80,0.00,,,0.01,WUHU216DAVISVP2,2013-01-09 03:54:00,
2013-01-08 22:59:00,31.3,25.9,30.01,NW,323,5.0,9.0,80,0.00,,,0.01,WUHU216DAVISVP2,2013-01-09 03:59:00,
2013-01-08 23:00:00,31.3,25.8,30.01,NNW,338,4.0,14.0,80,0.00,,,0.01,WUHU216DAVISVP2,2013-01-09 04:00:00,
2013-01-08 23:04:00,31.4,26.0,30.01,NNE,23,3.0,14.0,80,0.00,,,0.01,WUHU216DAVISVP2,2013-01-09 04:04:00,
2013-01-08 23:09:00,31.5,26.0,30.02,NE,44,7.0,14.0,80,0.00,,,0.01,WUHU216DAVISVP2,2013-01-09 04:09:00,
2013-01-08 23:14:00,31.7,26.2,30.01,North,351,4.0,12.0,80,0.00,,,0.01,WUHU216DAVISVP2,2013-01-09 04:14:00,
2013-01-08 23:19:00,31.8,26.0,30.02,NNW,346,4.0,11.0,79,0.00,,,0.01,WUHU216DAVISVP2,2013-01-09 04:19:00,
2013-01-08 23:25:00,32.0,26.2,30.02,North,8,4.0,11.0,79,0.00,,,0.01,WUHU216DAVISVP2,2013-01-09 04:25:00,
2013-01-08 23:30:00,32.1,26.3,30.01,NNE,20,5.0,11.0,79,0.00,,,0.01,WUHU216DAVISVP2,2013-01-09 04:30:00,
2013-01-08 23:35:00,32.1,26.3,30.01,NE,47,10.0,13.0,79,0.00,,,0.01,WUHU216DAVISVP2,2013-01-09 04:35:00,
2013-01-08 23:40:00,32.1,26.3,30.01,North,1,6.0,13.0,79,0.00,,,0.01,WUHU216DAVISVP2,2013-01-09 04:40:00,
2013-01-08 23:45:00,32.1,26.3,30.01,NNE,19,8.0,13.0,79,0.00,,,0.01,WUHU216DAVISVP2,2013-01-09 04:45:00,
2013-01-08 23:50:00,32.1,26.3,30.01,NNE,25,5.0,13.0,79,0.00,,,0.01,WUHU216DAVISVP2,2013-01-09 04:50:00,
2013-01-08 23:55:00,32.1,26.0,30.01,NNE,26,3.0,12.0,78,0.00,,,0.01,WUHU216DAVISVP2,2013-01-09 04:55:00,